Location: *
(46.4833°N, 7.6667°E)
Time: 04:35:39
(UTC+00:00)

Gbstr 26 Del rocket - Pass Details

Date: 27 February 2020
Orbit: 492 x 1264 km, 51.8° (Epoch: 31 March)

Event Time Altitude Azimuth Distance (km) Brightness Sun altitude
Rises 18:53:56 0° 251° (WSW) 2,659 7.5 -18.4°
Reaches altitude 10° 18:55:59 10° 254° (WSW) 1,830 6.5 -18.7°
Maximum altitude 19:00:05 69° 338° (NNW) 663 3.2 -19.4°
Enters shadow 19:02:04 34° 53° (NE) 1,086 3.9 -19.8°
